Weather History for KCDA - November, 2013

Change the Weather History Date:

Friday, November 8, 2013

  Actual Average (K1V4) Record (K1V4)
Temperature  
Mean Temperature 33 °F 39 °F  
Max Temperature 36 °F 48 °F 71 °F (1938)
Min Temperature 30 °F 30 °F 7 °F (1921)
Degree Days  
Heating Degree Days 32 26  
Month to date heating degree days 197  
Since 1 July heating degree days 984  
Cooling Degree Days 0 0  
Month to date cooling degree days 0  
Year to date cooling degree days 433  
Moisture  
Dew Point 23 °F    
Average Humidity 67    
Maximum Humidity 76    
Minimum Humidity 57    
Precipitation  
Precipitation 0.00 in 0.11 in 1.30 in (1900)
Month to date precipitation 0.96  
Year to date precipitation 33.98  
Sea Level Pressure  
Sea Level Pressure 29.88 in    
Wind  
Wind Speed 7 mph (West)    
Max Wind Speed 18 mph    
Max Gust Speed 29 mph    
Visibility 10 miles    
Events Snow    
T = Trace of Precipitation, MM = Missing Value Source: NWS Daily Summary

Daily Weather History Graph

Daily Weather History Graph

Search for Another Location

Airport or City:

Trip Planner

Search our weather history database for the weather conditions in past years. The results will help you decide how hot, cold, wet, or windy it might be!

Date:

Astronomy

Nov. 08, 2013 Rise Set
Actual Time 6:35 AM EST 4:27 PM EST
Civil Twilight 6:04 AM EST 4:58 PM EST
Nautical Twilight 5:29 AM EST 5:33 PM EST
Astronomical Twilight 4:55 AM EST 6:07 PM EST
Moon 11:29 AM EST (11/8) 9:45 PM EST (11/8)
Length of Visible Light 10h 54m
Length of Day
9h 52m
Waxing Crescent, 33% of the Moon is Illuminated
Nov 8
Waxing Crescent
Nov 10
First Quarter
Nov 17
Full
Nov 25
Last Quarter
Dec 2
New

Hourly Weather History & Observations

Time (EST) Temp. Windchill Dew Point Humidity Pressure Visibility Wind Dir Wind Speed Gust Speed Precip Events Conditions
12:15 AM 33.6 °F 27.5 °F 23.9 °F 68% 29.81 in 10.0 mi WNW 6.9 mph 17.3 mph N/A   Overcast
12:35 AM 33.3 °F 27.9 °F 23.5 °F 68% 29.81 in 10.0 mi WNW 5.8 mph - N/A   Overcast
12:55 AM 32.4 °F 27.9 °F 23.2 °F 69% 29.80 in 10.0 mi West 4.6 mph - N/A   Mostly Cloudy
1:15 AM 32.0 °F 27.5 °F 22.8 °F 69% 29.80 in 10.0 mi West 4.6 mph - N/A   Scattered Clouds
1:35 AM 31.5 °F 25.8 °F 22.1 °F 68% 29.80 in 10.0 mi WNW 5.8 mph - N/A   Clear
1:55 AM 31.6 °F 26.0 °F 22.1 °F 68% 29.80 in 10.0 mi West 5.8 mph - N/A   Clear
2:15 AM 31.3 °F 24.7 °F 21.9 °F 68% 29.80 in 10.0 mi West 6.9 mph - N/A   Clear
2:35 AM 30.9 °F 27.5 °F 21.6 °F 68% 29.80 in 10.0 mi West 3.5 mph - N/A   Clear
2:55 AM 31.6 °F - 21.4 °F 66% 29.80 in 10.0 mi Calm Calm - N/A   Mostly Cloudy
3:15 AM 30.7 °F - 21.4 °F 68% 29.80 in 10.0 mi Calm Calm - N/A   Scattered Clouds
3:35 AM 30.2 °F 25.4 °F 21.7 °F 71% 29.80 in 10.0 mi West 4.6 mph - N/A   Mostly Cloudy
3:55 AM 30.7 °F - 21.9 °F 70% 29.80 in 10.0 mi Calm Calm - N/A   Overcast
4:15 AM 30.9 °F 27.5 °F 21.9 °F 69% 29.80 in 10.0 mi West 3.5 mph - N/A   Overcast
4:35 AM 31.1 °F - 22.8 °F 71% 29.81 in 10.0 mi Calm Calm - N/A   Overcast
4:55 AM 31.1 °F - 22.8 °F 71% 29.81 in 10.0 mi Calm Calm - N/A   Overcast
5:15 AM 30.9 °F - 22.8 °F 72% 29.81 in 10.0 mi Calm Calm - N/A   Mostly Cloudy
5:35 AM 30.9 °F - 22.6 °F 71% 29.80 in 10.0 mi Calm Calm - N/A   Scattered Clouds
5:55 AM 31.1 °F - 23.0 °F 72% 29.80 in 10.0 mi Calm Calm - N/A   Mostly Cloudy
6:15 AM 31.8 °F - 23.2 °F 70% 29.80 in 10.0 mi Calm Calm - N/A   Overcast
6:35 AM 31.3 °F 26.6 °F 23.9 °F 74% 29.81 in 10.0 mi West 4.6 mph - N/A   Overcast
6:55 AM 31.8 °F 28.5 °F 23.9 °F 73% 29.81 in 10.0 mi WSW 3.5 mph - N/A   Mostly Cloudy
7:15 AM 31.6 °F - 24.1 °F 74% 29.82 in 10.0 mi Calm Calm - N/A   Mostly Cloudy
7:35 AM 32.0 °F - 24.3 °F 73% 29.83 in 10.0 mi Calm Calm - N/A   Overcast
7:55 AM 32.9 °F 28.5 °F 24.6 °F 72% 29.83 in 10.0 mi West 4.6 mph - N/A   Overcast
8:15 AM 32.9 °F 27.5 °F 25.2 °F 73% 29.84 in 10.0 mi West 5.8 mph - N/A   Mostly Cloudy
8:35 AM 34.2 °F 27.5 °F 25.0 °F 69% 29.84 in 10.0 mi West 8.1 mph 16.1 mph N/A   Overcast
8:55 AM 33.8 °F 25.8 °F 23.9 °F 67% 29.84 in 10.0 mi West 10.4 mph 16.1 mph N/A   Scattered Clouds
9:15 AM 35.8 °F 26.9 °F 24.1 °F 62% 29.84 in 10.0 mi West 13.8 mph 20.7 mph N/A   Scattered Clouds
9:35 AM 34.2 °F 26.2 °F 24.6 °F 68% 29.84 in 10.0 mi West 10.4 mph - N/A   Mostly Cloudy
9:55 AM 33.8 °F 26.4 °F 24.6 °F 69% 29.84 in 10.0 mi West 9.2 mph 16.1 mph N/A   Mostly Cloudy
10:15 AM 34.7 °F 26.4 °F 25.0 °F 68% 29.84 in 10.0 mi WNW 11.5 mph 19.6 mph N/A   Mostly Cloudy
10:35 AM 35.1 °F 25.9 °F 24.6 °F 66% 29.84 in 10.0 mi West 13.8 mph 19.6 mph N/A   Mostly Cloudy
10:55 AM 35.4 °F 26.4 °F 25.0 °F 66% 29.84 in 10.0 mi West 13.8 mph 18.4 mph N/A   Mostly Cloudy
11:15 AM 35.1 °F 26.4 °F 23.7 °F 63% 29.84 in 10.0 mi West 12.7 mph 24.2 mph N/A   Mostly Cloudy
11:35 AM 35.8 °F 26.5 °F 23.9 °F 62% 29.84 in 10.0 mi WNW 15.0 mph 21.9 mph N/A   Mostly Cloudy
11:55 AM 36.9 °F 29.1 °F 23.9 °F 59% 29.84 in 10.0 mi West 11.5 mph 19.6 mph N/A   Mostly Cloudy
12:15 PM 36.5 °F 27.4 °F 24.6 °F 62% 29.84 in 10.0 mi West 15.0 mph 19.6 mph N/A   Mostly Cloudy
12:35 PM 35.1 °F 25.5 °F 25.3 °F 68% 29.84 in 10.0 mi West 15.0 mph 24.2 mph N/A   Scattered Clouds
12:55 PM 36.7 °F 28.4 °F 25.5 °F 64% 29.84 in 7.0 mi West 12.7 mph 17.3 mph N/A Snow Light Snow
1:15 PM 35.6 °F 26.2 °F 24.3 °F 63% 29.84 in 10.0 mi West 15.0 mph 25.3 mph N/A   Mostly Cloudy
1:35 PM 35.1 °F 24.5 °F 24.1 °F 64% 29.85 in 10.0 mi West 18.4 mph 21.9 mph N/A   Scattered Clouds
1:55 PM 34.5 °F 25.7 °F 23.7 °F 65% 29.85 in 10.0 mi West 12.7 mph 26.5 mph N/A   Scattered Clouds
2:15 PM 34.3 °F 26.5 °F 23.7 °F 65% 29.86 in 10.0 mi West 10.4 mph 20.7 mph N/A   Mostly Cloudy
2:35 PM 35.1 °F 24.5 °F 23.0 °F 61% 29.87 in 10.0 mi West 18.4 mph 28.8 mph N/A   Mostly Cloudy
2:55 PM 34.0 °F 25.0 °F 22.6 °F 63% 29.88 in 10.0 mi West 12.7 mph 25.3 mph N/A   Overcast
3:15 PM 34.0 °F 24.2 °F 22.5 °F 63% 29.88 in 10.0 mi West 15.0 mph 27.6 mph N/A   Overcast
3:35 PM 33.1 °F 23.9 °F 23.5 °F 68% 29.89 in 10.0 mi West 12.7 mph 20.7 mph N/A   Mostly Cloudy
3:55 PM 32.5 °F 23.2 °F 24.8 °F 73% 29.90 in 7.0 mi West 12.7 mph 21.9 mph N/A Snow Light Snow
4:15 PM 32.0 °F 23.0 °F 25.3 °F 76% 29.91 in 7.0 mi West 11.5 mph 17.3 mph N/A Snow Light Snow
4:35 PM 32.0 °F 24.2 °F 25.2 °F 76% 29.91 in 10.0 mi West 9.2 mph - N/A   Overcast
4:55 PM 32.5 °F 24.2 °F 24.1 °F 71% 29.92 in 10.0 mi West 10.4 mph 19.6 mph N/A   Overcast
5:15 PM 33.1 °F 23.9 °F 22.5 °F 65% 29.93 in 10.0 mi West 12.7 mph 26.5 mph N/A   Overcast
5:35 PM 33.1 °F 22.6 °F 21.6 °F 63% 29.93 in 10.0 mi WNW 16.1 mph 21.9 mph N/A   Overcast
5:55 PM 33.3 °F 23.7 °F 21.2 °F 61% 29.95 in 10.0 mi WNW 13.8 mph 24.2 mph N/A   Overcast
6:15 PM 32.9 °F 22.8 °F 22.1 °F 65% 29.95 in 10.0 mi West 15.0 mph 20.7 mph N/A   Overcast
6:35 PM 32.5 °F 22.7 °F 23.0 °F 68% 29.96 in 10.0 mi WNW 13.8 mph 23.0 mph N/A   Overcast
6:55 PM 32.0 °F 24.2 °F 23.7 °F 71% 29.96 in 10.0 mi West 9.2 mph - N/A Snow Light Snow
7:15 PM 32.0 °F 23.0 °F 23.9 °F 72% 29.96 in 10.0 mi West 11.5 mph 16.1 mph N/A   Overcast
7:35 PM 32.2 °F 25.8 °F 23.5 °F 70% 29.98 in 10.0 mi West 6.9 mph - N/A   Overcast
7:55 PM 32.5 °F 26.2 °F 22.3 °F 66% 29.98 in 10.0 mi West 6.9 mph - N/A   Overcast
8:15 PM 33.3 °F 24.6 °F 21.0 °F 61% 29.98 in 10.0 mi WNW 11.5 mph 20.7 mph N/A   Overcast
8:35 PM 33.3 °F 25.1 °F 20.3 °F 59% 29.99 in 10.0 mi WNW 10.4 mph 23.0 mph N/A   Overcast
8:55 PM 33.3 °F 25.1 °F 20.3 °F 59% 29.99 in 10.0 mi West 10.4 mph 21.9 mph N/A   Overcast
9:15 PM 33.3 °F 24.1 °F 20.1 °F 59% 30.00 in 10.0 mi West 12.7 mph 20.7 mph N/A   Overcast
9:35 PM 32.9 °F 24.1 °F 19.6 °F 58% 30.00 in 10.0 mi West 11.5 mph 26.5 mph N/A   Overcast
9:55 PM 32.5 °F 23.2 °F 18.7 °F 57% 30.01 in 10.0 mi WNW 12.7 mph 24.2 mph N/A   Mostly Cloudy
10:15 PM 32.9 °F 24.1 °F 19.4 °F 58% 30.01 in 10.0 mi West 11.5 mph 20.7 mph N/A   Overcast
10:35 PM 32.5 °F 24.2 °F 19.4 °F 58% 30.01 in 10.0 mi WNW 10.4 mph 16.1 mph N/A   Overcast
10:55 PM 32.5 °F 24.2 °F 19.6 °F 59% 30.01 in 10.0 mi West 10.4 mph 19.6 mph N/A   Overcast
11:15 PM 32.0 °F 23.6 °F 20.3 °F 62% 30.01 in 10.0 mi WNW 10.4 mph 17.3 mph N/A   Overcast
11:35 PM 32.5 °F 23.2 °F 20.3 °F 61% 30.02 in 10.0 mi West 12.7 mph 17.3 mph N/A   Overcast
11:55 PM 32.2 °F 22.3 °F 20.5 °F 62% 30.02 in 10.0 mi WNW 13.8 mph 18.4 mph N/A   Overcast